Year,Month,Day,Hour,Minute,Value (Times are PST for temperature in C)
2014,08,13,00,00,15.80
2014,08,13,00,01,15.70
2014,08,13,00,02,15.70
2014,08,13,00,03,15.60
2014,08,13,00,04,15.60
2014,08,13,00,05,15.60
2014,08,13,00,06,15.50
2014,08,13,00,07,15.50
2014,08,13,00,08,15.50
2014,08,13,00,09,15.50
2014,08,13,00,10,15.50
2014,08,13,00,11,15.50
2014,08,13,00,12,15.50
2014,08,13,00,13,15.50
2014,08,13,00,14,15.50
2014,08,13,00,15,15.60
2014,08,13,00,16,15.60
2014,08,13,00,17,15.60
2014,08,13,00,18,15.60
2014,08,13,00,19,15.60
2014,08,13,00,20,15.60
2014,08,13,00,21,15.60
2014,08,13,00,22,15.70
2014,08,13,00,23,15.70
2014,08,13,00,24,15.70
2014,08,13,00,25,15.70
2014,08,13,00,26,15.70
2014,08,13,00,27,15.80
2014,08,13,00,28,15.80
2014,08,13,00,29,15.80
2014,08,13,00,30,15.80
2014,08,13,00,31,15.80
2014,08,13,00,32,15.90
2014,08,13,00,33,15.90
2014,08,13,00,34,15.90
2014,08,13,00,35,15.90
2014,08,13,00,36,15.90
2014,08,13,00,37,16.10
2014,08,13,00,38,16.10
2014,08,13,00,39,16.10
2014,08,13,00,40,16.10
2014,08,13,00,41,16.10
2014,08,13,00,42,16.10
2014,08,13,00,43,16.10
2014,08,13,00,44,16.10
2014,08,13,00,45,16.10
2014,08,13,00,46,16.10
2014,08,13,00,47,16.10
2014,08,13,00,48,16.10
2014,08,13,00,49,16.10
2014,08,13,00,50,16.10
2014,08,13,00,51,16.10
2014,08,13,00,52,16.10
2014,08,13,00,53,16.20
2014,08,13,00,54,16.20
2014,08,13,00,55,16.30
2014,08,13,00,56,16.30
2014,08,13,00,57,16.40
2014,08,13,00,58,16.40
2014,08,13,00,59,16.50
2014,08,13,01,00,16.60
2014,08,13,01,01,16.60
2014,08,13,01,02,16.70
2014,08,13,01,03,16.70
2014,08,13,01,04,16.80
2014,08,13,01,05,16.90
2014,08,13,01,06,17.00
2014,08,13,01,07,17.10
2014,08,13,01,08,17.20
2014,08,13,01,09,17.30
2014,08,13,01,10,17.30
2014,08,13,01,11,17.30
2014,08,13,01,12,17.40
2014,08,13,01,13,17.50
2014,08,13,01,14,17.70
2014,08,13,01,15,17.90
2014,08,13,01,16,18.10
2014,08,13,01,17,18.30
2014,08,13,01,18,18.40
2014,08,13,01,19,18.60
2014,08,13,01,20,18.60
2014,08,13,01,21,18.70
2014,08,13,01,22,18.70
2014,08,13,01,23,18.70
2014,08,13,01,24,18.70
2014,08,13,01,25,18.80
2014,08,13,01,26,18.80
2014,08,13,01,27,18.90
2014,08,13,01,28,19.00
2014,08,13,01,29,19.10
2014,08,13,01,30,19.10
2014,08,13,01,31,19.20
2014,08,13,01,32,19.30
2014,08,13,01,33,19.30
2014,08,13,01,34,19.40
2014,08,13,01,35,19.50
2014,08,13,01,36,19.50
2014,08,13,01,37,19.60
2014,08,13,01,38,19.60
2014,08,13,01,39,19.60
2014,08,13,01,40,19.60
2014,08,13,01,41,19.60
2014,08,13,01,42,19.60
2014,08,13,01,43,19.60
2014,08,13,01,44,19.60
2014,08,13,01,45,19.50
2014,08,13,01,46,19.40
2014,08,13,01,47,19.40
2014,08,13,01,48,19.30
2014,08,13,01,49,19.30
2014,08,13,01,50,19.20
2014,08,13,01,51,19.10
2014,08,13,01,52,19.10
2014,08,13,01,53,19.10
2014,08,13,01,54,19.00
2014,08,13,01,55,18.90
2014,08,13,01,56,18.90
2014,08,13,01,57,18.90
2014,08,13,01,58,18.80
2014,08,13,01,59,18.80
2014,08,13,02,00,18.70
2014,08,13,02,01,18.70
2014,08,13,02,02,18.70
2014,08,13,02,03,18.60
2014,08,13,02,04,18.60
2014,08,13,02,05,18.60
2014,08,13,02,06,18.60
2014,08,13,02,07,18.50
2014,08,13,02,08,18.50
2014,08,13,02,09,18.50
2014,08,13,02,10,18.40
2014,08,13,02,11,18.40
2014,08,13,02,12,18.30
2014,08,13,02,13,18.20
2014,08,13,02,14,18.20
2014,08,13,02,15,18.10
2014,08,13,02,16,18.00
2014,08,13,02,17,17.90
2014,08,13,02,18,17.90
2014,08,13,02,19,17.80
2014,08,13,02,20,17.80
2014,08,13,02,21,17.70
2014,08,13,02,22,17.70
2014,08,13,02,23,17.60
2014,08,13,02,24,17.60
2014,08,13,02,25,17.50
2014,08,13,02,26,17.40
2014,08,13,02,27,17.30
2014,08,13,02,28,17.30
2014,08,13,02,29,17.30
2014,08,13,02,30,17.20
2014,08,13,02,31,17.20
2014,08,13,02,32,17.20
2014,08,13,02,33,17.10
2014,08,13,02,34,17.10
2014,08,13,02,35,17.00
2014,08,13,02,36,17.00
2014,08,13,02,37,16.90
2014,08,13,02,38,16.80
2014,08,13,02,39,16.80
2014,08,13,02,40,16.60
2014,08,13,02,41,16.50
2014,08,13,02,42,16.40
2014,08,13,02,43,16.20
2014,08,13,02,44,16.10
2014,08,13,02,45,15.90
2014,08,13,02,46,15.80
2014,08,13,02,47,15.60
2014,08,13,02,48,15.40
2014,08,13,02,49,15.20
2014,08,13,02,50,14.90
2014,08,13,02,51,14.70
2014,08,13,02,52,14.50
2014,08,13,02,53,14.20
2014,08,13,02,54,14.10
2014,08,13,02,55,13.90
2014,08,13,02,56,13.70
2014,08,13,02,57,13.60
2014,08,13,02,58,13.60
2014,08,13,02,59,13.50
2014,08,13,03,00,13.40
2014,08,13,03,01,13.30
2014,08,13,03,02,13.30
2014,08,13,03,03,13.30
2014,08,13,03,04,13.30
2014,08,13,03,05,13.30
2014,08,13,03,06,13.30
2014,08,13,03,07,13.30
2014,08,13,03,08,13.30
2014,08,13,03,09,13.30
2014,08,13,03,10,13.30
2014,08,13,03,11,13.30
2014,08,13,03,12,13.30
2014,08,13,03,13,13.30
2014,08,13,03,14,13.30
2014,08,13,03,15,13.30
2014,08,13,03,16,13.30
2014,08,13,03,17,13.30
2014,08,13,03,18,13.30
2014,08,13,03,19,13.30
2014,08,13,03,20,13.30
2014,08,13,03,21,13.30
2014,08,13,03,22,13.30
2014,08,13,03,23,13.30
2014,08,13,03,24,13.30
2014,08,13,03,25,13.30
2014,08,13,03,26,13.30
2014,08,13,03,27,13.30
2014,08,13,03,28,13.30
2014,08,13,03,29,13.30
2014,08,13,03,30,13.30
2014,08,13,03,31,13.30
2014,08,13,03,32,13.30
2014,08,13,03,33,13.30
2014,08,13,03,34,13.30
2014,08,13,03,35,13.30
2014,08,13,03,36,13.30
2014,08,13,03,37,13.30
2014,08,13,03,38,13.30
2014,08,13,03,39,13.30
2014,08,13,03,40,13.30
2014,08,13,03,41,13.30
2014,08,13,03,42,13.30
2014,08,13,03,43,13.30
2014,08,13,03,44,13.30
2014,08,13,03,45,13.30
2014,08,13,03,46,13.30
2014,08,13,03,47,13.30
2014,08,13,03,48,13.30
2014,08,13,03,49,13.30
2014,08,13,03,50,13.30
2014,08,13,03,51,13.40
2014,08,13,03,52,13.40
2014,08,13,03,53,13.40
2014,08,13,03,54,13.40
2014,08,13,03,55,13.40
2014,08,13,03,56,13.50
2014,08,13,03,57,13.50
2014,08,13,03,58,13.50
2014,08,13,03,59,13.60
2014,08,13,04,00,13.60
2014,08,13,04,01,13.60
2014,08,13,04,02,13.60
2014,08,13,04,03,13.60
2014,08,13,04,04,13.70
2014,08,13,04,05,13.70
2014,08,13,04,06,13.70
2014,08,13,04,07,13.70
2014,08,13,04,08,13.70
2014,08,13,04,09,13.70
2014,08,13,04,10,13.70
2014,08,13,04,11,13.80
2014,08,13,04,12,13.80
2014,08,13,04,13,13.80
2014,08,13,04,14,13.80
2014,08,13,04,15,13.90
2014,08,13,04,16,13.90
2014,08,13,04,17,13.90
2014,08,13,04,18,13.90
2014,08,13,04,19,13.90
2014,08,13,04,20,13.90
2014,08,13,04,21,14.00
2014,08,13,04,22,14.00
2014,08,13,04,23,13.90
2014,08,13,04,24,13.90
2014,08,13,04,25,13.90
2014,08,13,04,26,14.00
2014,08,13,04,27,14.00
2014,08,13,04,28,14.00
2014,08,13,04,29,14.00
2014,08,13,04,30,14.00
2014,08,13,04,31,14.10
2014,08,13,04,32,14.10
2014,08,13,04,33,14.10
2014,08,13,04,34,14.10
2014,08,13,04,35,14.20
2014,08,13,04,36,14.20
2014,08,13,04,37,14.20
2014,08,13,04,38,14.20
2014,08,13,04,39,14.20
2014,08,13,04,40,14.20
2014,08,13,04,41,14.20
2014,08,13,04,42,14.20
2014,08,13,04,43,14.20
2014,08,13,04,44,14.20
2014,08,13,04,45,14.30
2014,08,13,04,46,14.30
2014,08,13,04,47,14.30
2014,08,13,04,48,14.30
2014,08,13,04,49,14.30
2014,08,13,04,50,14.30
2014,08,13,04,51,14.30
2014,08,13,04,52,14.30
2014,08,13,04,53,14.30
2014,08,13,04,54,14.30
2014,08,13,04,55,14.40
2014,08,13,04,56,14.40
2014,08,13,04,57,14.40
2014,08,13,04,58,14.40
2014,08,13,04,59,14.40
2014,08,13,05,00,14.40
2014,08,13,05,01,14.40
2014,08,13,05,02,14.40
2014,08,13,05,03,14.40
2014,08,13,05,04,14.40
2014,08,13,05,05,14.40
2014,08,13,05,06,14.40
2014,08,13,05,07,14.40
2014,08,13,05,08,14.50
2014,08,13,05,09,14.40
2014,08,13,05,10,14.50
2014,08,13,05,11,14.50
2014,08,13,05,12,14.50
2014,08,13,05,13,14.50
2014,08,13,05,14,14.60
2014,08,13,05,15,14.60
2014,08,13,05,16,14.60
2014,08,13,05,17,14.60
2014,08,13,05,18,14.70
2014,08,13,05,19,14.70
2014,08,13,05,20,14.70
2014,08,13,05,21,14.80
2014,08,13,05,22,14.80
2014,08,13,05,23,14.80
2014,08,13,05,24,14.80
2014,08,13,05,25,14.80
2014,08,13,05,26,14.80
2014,08,13,05,27,14.90
2014,08,13,05,28,14.90
2014,08,13,05,29,14.90
2014,08,13,05,30,14.90
2014,08,13,05,31,14.90
2014,08,13,05,32,15.00
2014,08,13,05,33,15.00
2014,08,13,05,34,15.00
2014,08,13,05,35,15.00
2014,08,13,05,36,15.00
2014,08,13,05,37,15.00
2014,08,13,05,38,15.00
2014,08,13,05,39,15.00
2014,08,13,05,40,15.00
2014,08,13,05,41,15.00
2014,08,13,05,42,15.00
2014,08,13,05,43,15.00
2014,08,13,05,44,15.00
2014,08,13,05,45,15.10
2014,08,13,05,46,15.10
2014,08,13,05,47,15.10
2014,08,13,05,48,15.10
2014,08,13,05,49,15.10
2014,08,13,05,50,15.10
2014,08,13,05,51,15.10
2014,08,13,05,52,15.20
2014,08,13,05,53,15.20
2014,08,13,05,54,15.20
2014,08,13,05,55,15.20
2014,08,13,05,56,15.30
2014,08,13,05,57,15.30
2014,08,13,05,58,15.30
2014,08,13,05,59,15.30
2014,08,13,06,00,15.30
2014,08,13,06,01,15.30
2014,08,13,06,02,15.30
2014,08,13,06,03,15.30
2014,08,13,06,04,15.30
2014,08,13,06,05,15.30
2014,08,13,06,06,15.30
2014,08,13,06,07,15.30
2014,08,13,06,08,15.30
2014,08,13,06,09,15.30
2014,08,13,06,10,15.30
2014,08,13,06,11,15.30
2014,08,13,06,12,15.30
2014,08,13,06,13,15.30
2014,08,13,06,14,15.30
2014,08,13,06,15,15.30
2014,08,13,06,16,15.30
2014,08,13,06,17,15.30
2014,08,13,06,18,15.40
2014,08,13,06,19,15.50
2014,08,13,06,20,15.50
2014,08,13,06,21,15.60
2014,08,13,06,22,15.60
2014,08,13,06,23,15.70
2014,08,13,06,24,15.70
2014,08,13,06,25,15.60
2014,08,13,06,26,15.60
2014,08,13,06,27,15.60
2014,08,13,06,28,15.60
2014,08,13,06,29,15.60
2014,08,13,06,30,15.60
2014,08,13,06,31,15.60
2014,08,13,06,32,15.60
2014,08,13,06,33,15.60
2014,08,13,06,34,15.60
2014,08,13,06,35,15.60
2014,08,13,06,36,15.60
2014,08,13,06,37,15.60
2014,08,13,06,38,15.60
2014,08,13,06,39,15.60
2014,08,13,06,40,15.60
2014,08,13,06,41,15.70
2014,08,13,06,42,15.70
2014,08,13,06,43,15.70
2014,08,13,06,44,15.70
2014,08,13,06,45,15.70
2014,08,13,06,46,15.70
2014,08,13,06,47,15.70
2014,08,13,06,48,15.70
2014,08,13,06,49,15.70
2014,08,13,06,50,15.70
2014,08,13,06,51,15.70
2014,08,13,06,52,15.70
2014,08,13,06,53,15.80
2014,08,13,06,54,15.80
2014,08,13,06,55,15.80
2014,08,13,06,56,15.80
2014,08,13,06,57,15.80
2014,08,13,06,58,15.80
2014,08,13,06,59,15.80
2014,08,13,07,00,15.80
2014,08,13,07,01,15.80
2014,08,13,07,02,15.80
2014,08,13,07,03,15.80
2014,08,13,07,04,15.80
2014,08,13,07,05,15.80
2014,08,13,07,06,15.80
2014,08,13,07,07,15.90
2014,08,13,07,08,15.90
2014,08,13,07,09,15.90
2014,08,13,07,10,16.00
2014,08,13,07,11,16.10
2014,08,13,07,12,16.10
2014,08,13,07,13,16.10
2014,08,13,07,14,16.20
2014,08,13,07,15,16.20
2014,08,13,07,16,16.20
2014,08,13,07,17,16.20
2014,08,13,07,18,16.30
2014,08,13,07,19,16.30
2014,08,13,07,20,16.40
2014,08,13,07,21,16.40
2014,08,13,07,22,16.40
2014,08,13,07,23,16.40
2014,08,13,07,24,16.40
2014,08,13,07,25,16.40
2014,08,13,07,26,16.40
2014,08,13,07,27,16.40
2014,08,13,07,28,16.60
2014,08,13,07,29,16.60
2014,08,13,07,30,16.70
2014,08,13,07,31,16.70
2014,08,13,07,32,16.70
2014,08,13,07,33,16.70
2014,08,13,07,34,16.70
2014,08,13,07,35,16.80
2014,08,13,07,36,16.80
2014,08,13,07,37,16.80
2014,08,13,07,38,16.90
2014,08,13,07,39,16.90
2014,08,13,07,40,16.90
2014,08,13,07,41,16.90
2014,08,13,07,42,16.90
2014,08,13,07,43,16.90
2014,08,13,07,44,16.90
2014,08,13,07,45,17.00
2014,08,13,07,46,17.00
2014,08,13,07,47,17.00
2014,08,13,07,48,17.00
2014,08,13,07,49,17.00
2014,08,13,07,50,17.00
2014,08,13,07,51,17.00
2014,08,13,07,52,17.00
2014,08,13,07,53,17.10
2014,08,13,07,54,17.20
2014,08,13,07,55,17.20
2014,08,13,07,56,17.20
2014,08,13,07,57,17.20
2014,08,13,07,58,17.20
2014,08,13,07,59,17.20
2014,08,13,08,00,17.20
2014,08,13,08,01,17.20
2014,08,13,08,02,17.20
2014,08,13,08,03,17.30
2014,08,13,08,04,17.30
2014,08,13,08,05,17.30
2014,08,13,08,06,17.30
2014,08,13,08,07,17.30
2014,08,13,08,08,17.30
2014,08,13,08,09,17.30
2014,08,13,08,10,17.30
2014,08,13,08,11,17.30
2014,08,13,08,12,17.30
2014,08,13,08,13,17.30
2014,08,13,08,14,17.30
2014,08,13,08,15,17.30
2014,08,13,08,16,17.30
2014,08,13,08,17,17.30
2014,08,13,08,18,17.30
2014,08,13,08,19,17.30
2014,08,13,08,20,17.30
2014,08,13,08,21,17.30
2014,08,13,08,22,17.20
2014,08,13,08,23,17.20
2014,08,13,08,24,17.20
2014,08,13,08,25,17.20
2014,08,13,08,26,17.20
2014,08,13,08,27,17.20
2014,08,13,08,28,17.20
2014,08,13,08,29,17.20
2014,08,13,08,30,17.20
2014,08,13,08,31,17.20
2014,08,13,08,32,17.20
2014,08,13,08,33,17.20
2014,08,13,08,34,17.20
2014,08,13,08,35,17.20
2014,08,13,08,36,17.20
2014,08,13,08,37,17.30
2014,08,13,08,38,17.30
2014,08,13,08,39,17.30
2014,08,13,08,40,17.30
2014,08,13,08,41,17.30
2014,08,13,08,42,17.30
2014,08,13,08,43,17.30
2014,08,13,08,44,17.30
2014,08,13,08,45,17.40
2014,08,13,08,46,17.40
2014,08,13,08,47,17.40
2014,08,13,08,48,17.40
2014,08,13,08,49,17.40
2014,08,13,08,50,17.40
2014,08,13,08,51,17.40
2014,08,13,08,52,17.40
2014,08,13,08,53,17.40
2014,08,13,08,54,17.50
2014,08,13,08,55,17.50
2014,08,13,08,56,17.50
2014,08,13,08,57,17.50
2014,08,13,08,58,17.50
2014,08,13,08,59,17.50
2014,08,13,09,00,17.50
2014,08,13,09,01,17.50
2014,08,13,09,02,17.50
2014,08,13,09,03,17.50
2014,08,13,09,04,17.50
2014,08,13,09,05,17.40
2014,08,13,09,06,17.40
2014,08,13,09,07,17.40
2014,08,13,09,08,17.40
2014,08,13,09,09,17.40
2014,08,13,09,10,17.40
2014,08,13,09,11,17.40
2014,08,13,09,12,17.40
2014,08,13,09,13,17.40
2014,08,13,09,14,17.40
2014,08,13,09,15,17.40
2014,08,13,09,16,17.40
2014,08,13,09,17,17.40
2014,08,13,09,18,17.40
2014,08,13,09,19,17.40
2014,08,13,09,20,17.40
2014,08,13,09,21,17.40
2014,08,13,09,22,17.40
2014,08,13,09,23,17.40
2014,08,13,09,24,17.50
2014,08,13,09,25,17.50
2014,08,13,09,26,17.50
2014,08,13,09,27,17.50
2014,08,13,09,28,17.50
2014,08,13,09,29,17.50
2014,08,13,09,30,17.50
2014,08,13,09,31,17.50
2014,08,13,09,32,17.50
2014,08,13,09,33,17.50
2014,08,13,09,34,17.60
2014,08,13,09,35,17.60
2014,08,13,09,36,17.60
2014,08,13,09,37,17.60
2014,08,13,09,38,17.60
2014,08,13,09,39,17.60
2014,08,13,09,40,17.70
2014,08,13,09,41,17.70
2014,08,13,09,42,17.70
2014,08,13,09,43,17.70
2014,08,13,09,44,17.70
2014,08,13,09,45,17.70
2014,08,13,09,46,17.70
2014,08,13,09,47,17.70
2014,08,13,09,48,17.70
2014,08,13,09,49,17.70
2014,08,13,09,50,17.60
2014,08,13,09,51,17.60
2014,08,13,09,52,17.60
2014,08,13,09,53,17.60
2014,08,13,09,54,17.50
2014,08,13,09,55,17.50
2014,08,13,09,56,17.50
2014,08,13,09,57,17.50
2014,08,13,09,58,17.50
2014,08,13,09,59,17.50
2014,08,13,10,00,17.60
2014,08,13,10,01,17.60
2014,08,13,10,02,17.60
2014,08,13,10,03,17.60
2014,08,13,10,04,17.60
2014,08,13,10,05,17.60
2014,08,13,10,06,17.60
2014,08,13,10,07,17.70
2014,08,13,10,08,17.70
2014,08,13,10,09,17.70
2014,08,13,10,10,17.70
2014,08,13,10,11,17.70
2014,08,13,10,12,17.70
2014,08,13,10,13,17.80
2014,08,13,10,14,17.80
2014,08,13,10,15,17.80
2014,08,13,10,16,17.80
2014,08,13,10,17,17.80
2014,08,13,10,18,17.70
2014,08,13,10,19,17.50
2014,08,13,10,20,17.40
2014,08,13,10,21,17.10
2014,08,13,10,22,16.90
2014,08,13,10,23,16.70
2014,08,13,10,24,16.50
2014,08,13,10,25,16.20
2014,08,13,10,26,16.00
2014,08,13,10,27,15.80
2014,08,13,10,28,15.70
2014,08,13,10,29,15.60
2014,08,13,10,30,15.60
2014,08,13,10,31,15.50
2014,08,13,10,32,15.40
2014,08,13,10,33,15.40
2014,08,13,10,34,15.30
2014,08,13,10,35,15.30
2014,08,13,10,36,15.20
2014,08,13,10,37,15.10
2014,08,13,10,38,15.10
2014,08,13,10,39,15.00
2014,08,13,10,40,15.00
2014,08,13,10,41,15.10
2014,08,13,10,42,15.00
2014,08,13,10,43,15.00
2014,08,13,10,44,15.10
2014,08,13,10,45,15.10
2014,08,13,10,46,15.10
2014,08,13,10,47,15.10
2014,08,13,10,48,15.10
2014,08,13,10,49,15.10
2014,08,13,10,50,15.10
2014,08,13,10,51,15.10
2014,08,13,10,52,15.10
2014,08,13,10,53,15.00
2014,08,13,10,54,15.00
2014,08,13,10,55,15.00
2014,08,13,10,56,15.00
2014,08,13,10,57,15.10
2014,08,13,10,58,15.10
2014,08,13,10,59,15.00
2014,08,13,11,00,14.90
2014,08,13,11,01,14.80
2014,08,13,11,02,14.80
2014,08,13,11,03,14.80
2014,08,13,11,04,14.80
2014,08,13,11,05,14.80
2014,08,13,11,06,14.80
2014,08,13,11,07,14.90
2014,08,13,11,08,14.90
2014,08,13,11,09,14.80
2014,08,13,11,10,14.80
2014,08,13,11,11,14.80
2014,08,13,11,12,14.60
2014,08,13,11,13,14.60
2014,08,13,11,14,14.60
2014,08,13,11,15,14.60
2014,08,13,11,16,14.70
2014,08,13,11,17,14.70
2014,08,13,11,18,14.60
2014,08,13,11,19,14.60
2014,08,13,11,20,14.50
2014,08,13,11,21,14.50
2014,08,13,11,22,14.50
2014,08,13,11,23,14.50
2014,08,13,11,24,14.50
2014,08,13,11,25,14.40
2014,08,13,11,26,14.30
2014,08,13,11,27,14.20
2014,08,13,11,28,14.30
2014,08,13,11,29,14.30
2014,08,13,11,30,14.40
2014,08,13,11,31,14.40
2014,08,13,11,32,14.40
2014,08,13,11,33,14.20
2014,08,13,11,34,14.20
2014,08,13,11,35,14.20
2014,08,13,11,36,14.20
2014,08,13,11,37,14.10
2014,08,13,11,38,14.10
2014,08,13,11,39,14.10
2014,08,13,11,40,14.10
2014,08,13,11,41,14.10
2014,08,13,11,42,14.20
2014,08,13,11,43,14.30
2014,08,13,11,44,14.40
2014,08,13,11,45,14.50
2014,08,13,11,46,14.40
2014,08,13,11,47,14.40
2014,08,13,11,48,14.30
2014,08,13,11,49,14.20
2014,08,13,11,50,14.20
2014,08,13,11,51,14.30
2014,08,13,11,52,14.30
2014,08,13,11,53,14.30
2014,08,13,11,54,14.30
2014,08,13,11,55,14.30
2014,08,13,11,56,14.30
2014,08,13,11,57,14.40
2014,08,13,11,58,14.40
2014,08,13,11,59,14.50
2014,08,13,12,00,14.50
2014,08,13,12,01,14.50
2014,08,13,12,02,14.50
2014,08,13,12,03,14.50
2014,08,13,12,04,14.50
2014,08,13,12,05,14.50
2014,08,13,12,06,14.50
2014,08,13,12,07,14.50
2014,08,13,12,08,14.60
2014,08,13,12,09,14.60
2014,08,13,12,10,14.60
2014,08,13,12,11,14.60
2014,08,13,12,12,14.70
2014,08,13,12,13,14.70
2014,08,13,12,14,14.70
2014,08,13,12,15,14.70
2014,08,13,12,16,14.70
2014,08,13,12,17,14.70
2014,08,13,12,18,14.70
2014,08,13,12,19,14.80
2014,08,13,12,20,14.80
2014,08,13,13,56,14.60
2014,08,13,13,57,14.60
2014,08,13,13,58,14.60
2014,08,13,13,59,14.60
2014,08,13,14,00,14.60
2014,08,13,14,01,14.60
2014,08,13,14,02,14.60
2014,08,13,14,03,14.60
2014,08,13,14,04,14.60
2014,08,13,14,05,14.70
2014,08,13,14,06,14.70
2014,08,13,14,07,14.70
2014,08,13,14,08,14.70
2014,08,13,14,09,14.80
2014,08,13,14,10,14.80
2014,08,13,14,11,14.80
2014,08,13,14,12,14.80
2014,08,13,14,13,14.80
2014,08,13,14,14,14.80
2014,08,13,14,15,14.80
2014,08,13,14,16,14.80
2014,08,13,14,17,14.80
2014,08,13,14,18,14.80
2014,08,13,14,19,14.80
2014,08,13,14,20,14.80
2014,08,13,14,21,14.80
2014,08,13,14,22,14.80
2014,08,13,14,23,14.80
2014,08,13,14,24,14.90
2014,08,13,14,25,14.90
2014,08,13,14,26,14.90
2014,08,13,14,27,14.80
2014,08,13,14,28,14.80
2014,08,13,14,29,14.80
2014,08,13,14,30,14.80
2014,08,13,14,31,14.80
2014,08,13,14,32,14.80
2014,08,13,14,33,14.80
2014,08,13,14,34,14.80
2014,08,13,14,35,14.90
2014,08,13,14,36,14.90
2014,08,13,14,37,14.90
2014,08,13,14,38,14.90
2014,08,13,14,39,14.90
2014,08,13,14,40,14.90
2014,08,13,14,41,14.90
2014,08,13,14,42,14.90
2014,08,13,14,43,14.90
2014,08,13,14,44,14.80
2014,08,13,14,45,14.80
2014,08,13,14,46,14.80
2014,08,13,14,47,14.80
2014,08,13,14,48,14.80
2014,08,13,14,49,14.80
2014,08,13,14,50,14.80
2014,08,13,14,51,14.80
2014,08,13,14,52,14.80
2014,08,13,14,53,14.80
2014,08,13,14,54,14.80
2014,08,13,14,55,14.80
2014,08,13,14,56,14.80
2014,08,13,14,57,14.80
2014,08,13,14,58,14.80
2014,08,13,14,59,14.80
2014,08,13,15,00,14.90
2014,08,13,15,01,14.90
2014,08,13,15,02,14.90
2014,08,13,15,03,14.90
2014,08,13,15,04,14.90
2014,08,13,15,05,14.90
2014,08,13,15,06,14.90
2014,08,13,15,07,15.00
2014,08,13,15,08,15.00
2014,08,13,15,09,15.00
2014,08,13,15,10,15.00
2014,08,13,15,11,15.00
2014,08,13,15,12,15.00
2014,08,13,15,13,15.00
2014,08,13,15,14,15.00
2014,08,13,15,15,15.10
2014,08,13,15,16,15.10
2014,08,13,15,17,15.20
2014,08,13,15,18,15.20
2014,08,13,15,19,15.20
2014,08,13,15,20,15.20
2014,08,13,15,21,15.20
2014,08,13,15,22,15.20
2014,08,13,15,23,15.20
2014,08,13,15,24,15.20
2014,08,13,15,25,15.30
2014,08,13,15,26,15.30
2014,08,13,15,27,15.30
2014,08,13,15,28,15.30
2014,08,13,15,29,15.30
2014,08,13,15,30,15.30
2014,08,13,15,31,15.40
2014,08,13,15,32,15.40
2014,08,13,15,33,15.40
2014,08,13,15,34,15.40
2014,08,13,15,35,15.40
2014,08,13,15,36,15.50
2014,08,13,15,37,15.50
2014,08,13,15,38,15.50
2014,08,13,15,39,15.60
2014,08,13,15,40,15.60
2014,08,13,15,41,15.60
2014,08,13,15,42,15.70
2014,08,13,15,43,15.70
2014,08,13,15,44,15.70
2014,08,13,15,45,15.70
2014,08,13,15,46,15.60
2014,08,13,15,47,15.60
2014,08,13,15,48,15.60
2014,08,13,15,49,15.70
2014,08,13,15,50,15.70
2014,08,13,15,51,15.70
2014,08,13,15,52,15.70
2014,08,13,15,53,15.70
2014,08,13,15,54,15.60
2014,08,13,15,55,15.60
2014,08,13,15,56,15.60
2014,08,13,15,57,15.60
2014,08,13,15,58,15.70
2014,08,13,15,59,15.70
2014,08,13,16,00,15.80
2014,08,13,16,01,15.70
2014,08,13,16,02,15.70
2014,08,13,16,03,15.70
2014,08,13,16,04,15.70
2014,08,13,16,05,15.70
2014,08,13,16,06,15.70
2014,08,13,16,07,15.80
2014,08,13,16,08,15.80
2014,08,13,16,09,15.80
2014,08,13,16,10,15.80
2014,08,13,16,11,15.80
2014,08,13,16,12,15.80
2014,08,13,16,13,15.80
2014,08,13,16,14,15.80
2014,08,13,16,15,15.80
2014,08,13,16,16,15.80
2014,08,13,16,17,15.80
2014,08,13,16,18,15.80
2014,08,13,16,19,15.70
2014,08,13,16,20,15.70
2014,08,13,16,21,15.70
2014,08,13,16,22,15.60
2014,08,13,16,23,15.60
2014,08,13,16,24,15.60
2014,08,13,16,25,15.60
2014,08,13,16,26,15.60
2014,08,13,16,27,15.60
2014,08,13,16,28,15.60
2014,08,13,16,29,15.50
2014,08,13,16,30,15.60
2014,08,13,16,31,15.60
2014,08,13,16,32,15.60
2014,08,13,16,33,15.60
2014,08,13,16,34,15.70
2014,08,13,16,35,15.70
2014,08,13,16,36,15.70
2014,08,13,16,37,15.60
2014,08,13,16,38,15.60
2014,08,13,16,39,15.60
2014,08,13,16,40,15.70
2014,08,13,16,41,15.70
2014,08,13,16,42,15.70
2014,08,13,16,43,15.60
2014,08,13,16,44,15.60
2014,08,13,16,45,15.60
2014,08,13,16,46,15.60
2014,08,13,16,47,15.60
2014,08,13,16,48,15.60
2014,08,13,16,49,15.60
2014,08,13,16,50,15.60
2014,08,13,16,51,15.60
2014,08,13,16,52,15.60
2014,08,13,16,53,15.60
2014,08,13,16,54,15.60
2014,08,13,16,55,15.60
2014,08,13,16,56,15.60
2014,08,13,16,57,15.60
2014,08,13,16,58,15.60
2014,08,13,16,59,15.60
2014,08,13,17,00,15.60
2014,08,13,17,01,15.60
2014,08,13,17,02,15.70
2014,08,13,17,03,15.70
2014,08,13,17,04,15.80
2014,08,13,17,05,15.80
2014,08,13,17,06,15.80
2014,08,13,17,07,15.80
2014,08,13,17,08,15.80
2014,08,13,17,09,15.80
2014,08,13,17,10,15.70
2014,08,13,17,11,15.70
2014,08,13,17,12,15.60
2014,08,13,17,13,15.60
2014,08,13,17,14,15.60
2014,08,13,17,15,15.60
2014,08,13,17,16,15.60
2014,08,13,17,17,15.50
2014,08,13,17,18,15.50
2014,08,13,17,19,15.50
2014,08,13,17,20,15.50
2014,08,13,17,21,15.50
2014,08,13,17,22,15.50
2014,08,13,17,23,15.50
2014,08,13,17,24,15.50
2014,08,13,17,25,15.50
2014,08,13,17,26,15.40
2014,08,13,17,27,15.40
2014,08,13,17,28,15.30
2014,08,13,17,29,15.30
2014,08,13,17,30,15.30
2014,08,13,17,31,15.30
2014,08,13,17,32,15.30
2014,08,13,17,33,15.30
2014,08,13,17,34,15.30
2014,08,13,17,35,15.40
2014,08,13,17,36,15.40
2014,08,13,17,37,15.40
2014,08,13,17,38,15.40
2014,08,13,17,39,15.50
2014,08,13,17,40,15.50
2014,08,13,17,41,15.50
2014,08,13,17,42,15.50
2014,08,13,17,43,15.50
2014,08,13,17,44,15.50
2014,08,13,17,45,15.50
2014,08,13,17,46,15.50
2014,08,13,17,47,15.50
2014,08,13,17,48,15.50
2014,08,13,17,49,15.50
2014,08,13,17,50,15.50
2014,08,13,17,51,15.50
2014,08,13,17,52,15.50
2014,08,13,17,53,15.50
2014,08,13,17,54,15.50
2014,08,13,17,55,15.50
2014,08,13,17,56,15.60
2014,08,13,17,57,15.60
2014,08,13,17,58,15.60
2014,08,13,17,59,15.60
2014,08,13,18,00,15.60
2014,08,13,18,01,15.70
2014,08,13,18,02,15.70
2014,08,13,18,03,15.70
2014,08,13,18,04,15.70
2014,08,13,18,05,15.70
2014,08,13,18,06,15.70
2014,08,13,18,07,15.60
2014,08,13,18,08,15.60
2014,08,13,18,09,15.60
2014,08,13,18,10,15.60
2014,08,13,18,11,15.50
2014,08,13,18,12,15.50
2014,08,13,18,13,15.50
2014,08,13,18,14,15.50
2014,08,13,18,15,15.50
2014,08,13,18,16,15.50
2014,08,13,18,17,15.50
2014,08,13,18,18,15.50
2014,08,13,18,19,15.50
2014,08,13,18,20,15.50
2014,08,13,18,21,15.50
2014,08,13,18,22,15.50
2014,08,13,18,23,15.50
2014,08,13,18,24,15.50
2014,08,13,18,25,15.50
2014,08,13,18,26,15.50
2014,08,13,18,27,15.40
2014,08,13,18,28,15.40
2014,08,13,18,29,15.40
2014,08,13,18,30,15.40
2014,08,13,18,31,15.40
2014,08,13,18,32,15.30
2014,08,13,18,33,15.30
2014,08,13,18,34,15.30
2014,08,13,18,35,15.30
2014,08,13,18,36,15.30
2014,08,13,18,37,15.30
2014,08,13,18,38,15.30
2014,08,13,18,39,15.30
2014,08,13,18,40,15.30
2014,08,13,18,41,15.30
2014,08,13,18,42,15.30
2014,08,13,18,43,15.30
2014,08,13,18,44,15.30
2014,08,13,18,45,15.30
2014,08,13,18,46,15.30
2014,08,13,18,47,15.30
2014,08,13,18,48,15.30
2014,08,13,18,49,15.30
2014,08,13,18,50,15.30
2014,08,13,18,51,15.30
2014,08,13,18,52,15.30
2014,08,13,18,53,15.30
2014,08,13,18,54,15.30